This is the latest recevied weather packets stored in our database for station/object K5BOU. If no packets are shown the sender has not sent any weather packets the latest 10 day(s).
| Time | Temp. | Humidity | Pressure | Rain* | Wind** | Luminosity | Snow |
|---|---|---|---|---|---|---|---|
| 1788054672 | 30° C | 82% | 1013.1 hPa | 0 mm | - | 0 W/m² | - |
| 1788054367 | 30° C | 82% | 1013 hPa | 0 mm | - | 0 W/m² | - |
| 1788054067 | 30° C | 82% | 1012.9 hPa | 0 mm | - | 0 W/m² | - |
| 1788053758 | 30° C | 82% | 1012.9 hPa | 0 mm | - | 0 W/m² | - |
| 1788053453 | 30° C | 81% | 1012.9 hPa | 0 mm | - | 0 W/m² | - |
| 1788053153 | 30° C | 81% | 1012.9 hPa | 0 mm | - | 0 W/m² | - |
| 1788052850 | 30.56° C | 80% | 1012.8 hPa | 0 mm | - | 0 W/m² | - |
| 1788052550 | 30.56° C | 80% | 1012.7 hPa | 0 mm | - | 0 W/m² | - |
| 1788052245 | 30.56° C | 80% | 1012.6 hPa | 0 mm | - | 0 W/m² | - |
| 1788051951 | 30.56° C | 79% | 1012.6 hPa | 0 mm | - | 0 W/m² | - |
| 1788051636 | 30.56° C | 79% | 1012.7 hPa | 0 mm | - | 0 W/m² | - |
| 1788051333 | 31.11° C | 78% | 1012.4 hPa | 0 mm | - | 0 W/m² | - |
| 1788051032 | 31.11° C | 77% | 1012.7 hPa | 0 mm | - | 1 W/m² | - |
| 1788050727 | 31.67° C | 77% | 1012.7 hPa | 0 mm | - | 4 W/m² | - |
| 1788050426 | 31.67° C | 77% | 1012.5 hPa | 0 mm | - | 7 W/m² | - |
| 1788050121 | 31.67° C | 75% | 1012.7 hPa | 0 mm | - | 10 W/m² | - |
| 1788049816 | 32.22° C | 75% | 1012.5 hPa | 0 mm | - | 15 W/m² | - |
| 1788049509 | 32.22° C | 74% | 1012.5 hPa | 0 mm | - | 19 W/m² | - |
| 1788049205 | 32.78° C | 73% | 1012.5 hPa | 0 mm | - | 24 W/m² | - |
| 1788048899 | 32.78° C | 73% | 1012.7 hPa | 0 mm | - | 29 W/m² | - |
| 1788048589 | 32.78° C | 72% | 1012.8 hPa | 0 mm | - | 34 W/m² | - |
| 1788048286 | 32.78° C | 71% | 1012.6 hPa | 0 mm | - | 38 W/m² | - |
| 1788047984 | 33.33° C | 71% | 1012.5 hPa | 0 mm | - | 43 W/m² | - |
| 1788047678 | 33.89° C | 70% | 1012.7 hPa | 0 mm | - | 57 W/m² | - |
| 1788047378 | 33.89° C | 69% | 1012.7 hPa | 0 mm | - | 72 W/m² | - |
* Rain latest hour (hover to see other rain measurements)
** Current wind speed in m/s (hover to see current wind gust speed)